Location: La Ronge
(55.1000°N, 105.3000°W)
Time: 08:36:39
(UTC-06:00)

Daily predictions for brighter satellites

Satellite Brightness Start Highest point End
(mag) Time Altitude Azimuth Time Altitude Azimuth Time Altitude Azimuth
Cosmos 2154 Rocket 4.1 17:46:33 10° NNW 17:52:54 90° ESE 17:59:15 10° S
NOSS 3-4 (A) 3.8 17:46:38 10° NW 17:53:28 85° NE 18:00:51 10° SE
NOSS 3-4 (C) 3.8 17:46:44 10° NW 17:53:35 85° NE 18:00:58 10° SE
CZ-2C R/B 3.2 17:50:18 10° S 17:54:53 53° W 17:59:24 10° NNW
CZ-4 R/B 1.8 17:51:38 10° SE 17:55:42 46° ENE 17:59:46 10° N
SL-16 R/B 2.8 17:50:17 10° SW 17:55:55 59° NW 18:01:34 10° NNE
SeaSat 1 2.9 17:51:04 10° SSE 17:56:00 69° WSW 18:00:57 10° NW
RESURS DK-1 4.0 17:54:13 10° NNW 17:57:05 18° NNE 17:59:57 10° ENE
Cosmos 1455 3.9 17:55:29 10° NNE 17:57:42 15° ENE 17:59:54 10° E
SJ-7 4.4 17:54:53 10° SSE 17:59:01 76° ENE 18:03:15 10° NNW
H-2A R/B 4.4 17:59:15 10° E 18:01:26 15° NE 18:03:37 10° NNE
Cosmos 1315 Rocket 4.3 18:02:50 10° SE 18:05:32 18° E 18:08:14 10° NE
Cosmos 1943 3.5 18:00:50 10° S 18:06:14 50° ESE 18:11:39 10° NE
NOSS 3-3 (A) 4.4 18:00:41 10° SSW 18:06:39 51° SE 18:13:15 10° NE
NOSS 3-3 (C) 4.4 18:00:48 10° SSW 18:06:45 51° SE 18:13:21 10° NE
Cosmos 1697 Rocket 4.0 18:05:29 10° NNW 18:09:46 21° NNE 18:14:02 10° ENE
Cosmos 1603 3.8 18:04:05 10° SSW 18:09:50 82° ESE 18:15:39 10° NE
Cosmos 2181 Rocket 4.3 18:05:34 10° SSE 18:11:43 50° E 18:17:52 10° NNE
Cosmos 1674 2.6 18:08:37 10° S 18:12:21 74° E 18:16:06 10° NNE
Meteor 2-14 Rocket 4.5 18:09:06 10° NNW 18:15:15 87° ENE 18:21:22 10° SSE
Cosmos 2237 Rocket 3.7 18:11:00 10° W 18:15:56 29° NW 18:20:52 10° NNE
SL-8 Rocket 4.0 18:09:49 10° N 18:16:01 67° ENE 18:22:12 10° SSE
COSMO-SKYMED 1 3.8 18:13:09 10° NE 18:16:30 21° E 18:19:51 10° SE
GEOS 3 Rocket 4.0 18:13:11 10° E 18:18:20 49° NNE 18:23:31 10° NW
Cosmos 1076 Rocket 4.1 18:14:22 10° SSE 18:18:24 37° E 18:22:26 10° NNE
Cosmos 1626 3.7 18:17:10 10° SE 18:19:37 17° E 18:22:05 10° NE
USA 161 0.9 18:18:00 10° N 18:20:17 75° WNW 18:22:19 10° SSW
Meteor 1-21 Rocket 4.4 18:15:33 10° S 18:21:21 60° E 18:27:11 10° NNE
Resurs 01 Rocket 3.6 18:23:35 11° NE 18:23:56 11° NE 18:24:55 10° NNE
Cosmos 2218 Rocket 4.0 18:19:01 10° N 18:25:12 66° ENE 18:31:19 10° SSE
Cosmos 1656 Rocket 3.7 18:24:11 10° NW 18:29:40 83° WSW 18:35:12 10° SSE
NOAA 12 4.3 18:26:39 10° SE 18:31:41 50° ENE 18:36:47 10° N
Cosmos 1400 Rocket 2.9 18:27:47 10° S 18:31:49 57° E 18:35:54 10° NNE
SMAP 3.6 18:28:16 10° S 18:32:54 66° WSW 18:37:34 10° NNW
Cosmos 1867 4.0 18:27:54 10° WSW 18:33:18 60° NW 18:38:30 11° NE
Cosmos 2228 Rocket 3.8 18:29:46 10° N 18:33:56 33° ENE 18:38:06 10° SE
Cosmos 2322 Rocket 4.0 18:31:14 10° NNW 18:34:51 17° N 18:38:08 11° NE
Cosmos 1328 Rocket 3.9 18:31:33 10° N 18:35:43 40° ENE 18:39:50 10° SE
CORIOLIS 4.4 18:30:45 10° S 18:36:05 74° WSW 18:41:29 10° NNW
Cosmos 1300 2.8 18:32:38 10° NNW 18:36:30 82° W 18:40:20 10° S
IRS-1A Rocket 4.3 18:33:17 10° SSE 18:38:52 88° ENE 18:44:37 10° NNW
Cosmos 1937 Rocket 4.5 18:34:49 10° NNW 18:39:15 27° NE 18:42:49 14° E
Cosmos 1943 Rocket 3.9 18:35:46 10° NW 18:40:52 37° WSW 18:45:54 10° S
ERS-2 2.7 18:38:06 10° SE 18:41:29 36° ENE 18:44:55 10° N
Ariane Rocket 3.6 18:37:35 10° S 18:42:36 61° WSW 18:47:40 10° NNW
Cosmos 1340 3.9 18:41:24 10° N 18:44:24 22° ENE 18:45:54 17° E
USA 215 3.3 18:38:40 14° ENE 18:44:28 87° NNW 18:51:02 10° WSW
ERBS 2.4 18:42:19 10° WNW 18:45:43 73° SSW 18:48:44 13° ESE
SL-08 R/B 4.4 18:39:55 10° N 18:46:11 76° ENE 18:52:19 10° SSE
Cosmos 2219 Rocket 4.1 18:43:06 10° WNW 18:47:07 19° NNW 18:51:08 10° NNE
Cosmos 1703 4.4 18:44:49 10° SE 18:48:00 23° E 18:49:31 19° NE
Meteor 2-2 Rocket 4.2 18:42:40 10° NNW 18:48:30 82° ENE 18:54:11 10° SSE
Lacrosse 4 Rocket 3.2 18:46:08 10° W 18:49:24 22° NNW 18:52:39 10° NNE
Cosmos 909 Rocket 4.2 18:45:15 10° NW 18:52:43 87° NE 18:59:05 10° SE
MOS 1 4.2 18:48:22 10° SSE 18:54:00 81° ENE 18:59:42 10° NNW
MTI 4.5 18:56:25 25° ENE 18:57:31 32° E 19:00:27 10° SSE
SL-16 R/B 3.8 18:53:50 10° NNW 18:57:41 18° NNE 18:59:59 15° NE
Cosmos 2366 rocket 4.1 18:53:03 10° NNW 18:59:21 85° W 19:05:33 10° S
Cosmos 1777 Rocket 4.4 18:54:21 10° NNW 18:59:33 68° WSW 19:04:46 10° SSE
Cosmos 1766 Rocket 3.6 18:55:21 10° S 18:59:34 53° E 19:03:48 10° NNE
Cosmos 1726 4.4 18:56:54 10° NNW 19:00:05 28° W 19:03:14 10° SSW
Cosmos 44 Rocket 4.1 18:56:59 10° S 19:01:03 30° ESE 19:02:51 23° E
NOSS 2-1 (C) 3.5 18:58:11 10° SW 19:02:03 78° NW 19:05:07 20° NE
NOSS 2-1 (D) 3.5 18:58:52 10° WSW 19:02:43 76° NW 19:05:48 20° NE
Cosmos 1821 Rocket 4.2 18:58:50 10° N 19:04:45 46° ENE 19:10:42 10° SE
SKYMED 2 3.7 19:00:40 10° NNE 19:04:56 53° E 19:09:12 10° S
Cosmos 2360 Rocket 4.1 19:01:30 10° NW 19:05:00 16° N 19:07:38 12° NE
SJ-6B 3.6 19:04:44 27° ENE 19:05:08 28° ENE 19:08:23 10° N
Meteor 1-28 Rocket 3.6 19:01:34 10° N 19:05:23 66° WNW 19:09:10 10° SSW
SL-14 R/B 3.2 19:01:47 10° SSW 19:05:44 87° WNW 19:09:41 10° NNE
Cosmos 2344 4.4 18:57:40 10° WNW 19:05:58 54° N 19:13:47 20° ENE
Cosmos 1151 Rocket 3.1 19:03:06 10° N 19:07:26 52° ENE 19:11:43 10° SSE
FREGAT/IRIS 4.1 19:08:59 21° NNE 19:08:59 21° NNE 19:10:21 10° N
Cosmos 1980 Rocket 3.3 19:04:15 10° NNW 19:09:03 27° NNE 19:10:53 23° ENE
FENGYUN 3A 3.7 19:03:55 10° SSE 19:09:17 85° WSW 19:14:43 10° NNW
Cosmos 1992 Rocket 4.4 19:05:51 10° SW 19:11:00 62° WNW 19:16:12 10° NNE
Okean 3 Rocket 3.8 19:06:38 10° SSW 19:11:10 75° WNW 19:15:41 10° N
SPOT 3 Rocket 3.5 19:06:29 10° SSE 19:11:39 87° ENE 19:16:52 10° NNW
Geosat 3.9 19:11:27 16° NE 19:15:30 74° ESE 19:20:32 10° SSW
Cosmos 2058 3.5 19:12:35 10° SSE 19:16:25 36° E 19:17:28 31° ENE
YAOGAN 1 3.7 19:14:12 10° S 19:18:21 46° W 19:22:34 10° NNW
ATLAS 5 CENTAUR R/B 3.0 19:15:07 10° WNW 19:19:58 36° N 19:22:31 24° NE
ALOS 2.6 19:15:47 10° S 19:20:26 67° WSW 19:25:07 10° NNW
Cosmos 2333 Rocket 4.2 19:18:55 10° NW 19:22:47 18° NNW 19:26:11 11° NNE
USA 81 4.3 19:18:46 10° SSE 19:23:44 44° E 19:28:43 10° NNE
Nadezhda 3 Rocket 4.1 19:20:14 10° SSE 19:26:20 52° E 19:32:30 10° NNE
Cosmos 2278 3.8 19:22:52 10° NNW 19:28:30 54° NE 19:31:28 27° ESE
Cosmos 1346 Rocket 3.5 19:25:17 10° NNW 19:29:08 55° W 19:32:56 10° S
Cosmos 1898 Rocket 3.5 19:24:31 10° NNW 19:29:50 62° ENE 19:33:42 18° SE
CZ-4 R/B 3.8 19:27:17 10° SSW 19:30:55 27° W 19:34:33 10° NW
NOSS 2-1 (E) 3.9 19:27:12 10° WSW 19:31:09 59° NNW 19:33:25 28° NE
Meteor 1-27 4.5 19:26:43 10° NNW 19:32:24 72° W 19:38:09 10° S
Cosmos 1455 2.2 19:30:04 10° NNW 19:33:57 81° W 19:37:47 10° S
H-2A R/B 2.7 19:31:15 10° SSE 19:35:06 90° WSW 19:39:03 10° NNW
RESURS DK-1 2.4 19:31:51 10° NNW 19:35:59 59° NE 19:36:47 49° E
Cosmos 1437 4.3 19:33:01 10° N 19:34:27 23° N 19:34:27 23° N
Cosmos 858 Rocket 4.5 19:32:29 10° NNW 19:37:45 60° ENE 19:40:25 28° SE
Cosmos 1934 Rocket 4.0 19:34:30 10° N 19:40:49 61° ENE 19:47:07 10° SSE
Cosmos 2098 Rocket 4.0 19:36:11 10° NNW 19:41:08 68° W 19:47:21 10° S
SL-16 R/B 4.0 19:36:49 10° WNW 19:41:15 22° NNW 19:45:11 12° NNE
Cosmos 2151 3.0 19:37:13 10° S 19:41:25 57° E 19:42:19 46° NE
Cosmos 1315 Rocket 3.4 19:37:52 10° SSW 19:41:44 57° WNW 19:45:12 13° N
TSX-5 3.4 19:38:22 10° SSW 19:41:44 81° SE 19:42:16 63° NE
Meteor 1-11 4.1 19:36:11 10° S 19:41:48 81° ESE 19:47:32 10° NNE
CZ-2C R/B 4.3 19:37:13 10° N 19:41:55 60° WNW 19:46:30 10° SSW
Cosmos 1515 Rocket 3.7 19:39:02 10° NNW 19:43:24 72° W 19:47:42 10° S
Cosmos 2369 3.6 19:37:40 10° NNW 19:43:25 68° NE 19:46:19 30° SE
COSMOS 2406 3.4 19:38:23 10° S 19:43:50 48° ESE 19:45:16 39° ENE
Cosmos 990 Rocket 4.0 19:39:20 10° NNW 19:44:33 58° ENE 19:46:16 39° ESE
Cosmos 1605 Rocket 4.1 19:41:26 10° N 19:47:24 49° ENE 19:50:11 29° SE
Cosmos 1408 Rocket 3.9 19:45:14 10° SSW 19:49:30 63° WNW 19:53:49 10° N
Cosmos 1943 4.1 19:45:03 10° WSW 19:50:25 44° NW 19:54:34 17° NNE
DMSP B5D1-3 4.4 19:45:25 10° NNE 19:50:34 79° ESE 19:55:40 10° SSW
SJ 16-02 3.3 19:47:33 10° N 19:49:08 17° NNE 19:49:08 17° NNE
Cosmos 1869 3.6 19:47:59 10° N 19:51:06 50° NNE 19:51:06 50° NNE
COSMO-SKYMED 1 3.1 19:48:45 10° N 19:53:03 60° WNW 19:57:20 10° SSW
Cosmos 1656 3.5 19:48:00 10° NNW 19:53:28 69° NE 19:55:19 42° ESE
Cosmos 1626 2.8 19:50:55 10° SSW 19:54:35 55° WNW 19:56:47 22° N
Cosmos 1697 Rocket 2.8 19:49:26 10° NNW 19:54:59 55° NE 19:56:00 48° E
Envisat 2.9 19:54:07 39° SE 19:55:50 62° ENE 20:00:52 10° N
EO 1 Del DPAF 3.2 19:55:15 49° N 19:56:13 81° WNW 20:00:02 10° SSW
GEOS 3 Rocket 4.0 19:52:24 19° SSE 19:56:16 67° SW 20:01:40 10° NW
NOSS 3-3 (A) 4.4 19:51:11 10° WSW 19:57:33 63° NNW 20:01:11 29° NE
FengYun 1-2 T 4.5 19:51:59 10° S 19:57:37 71° WSW 20:03:13 10° NNW
NOSS 3-3 (C) 4.4 19:51:17 10° WSW 19:57:38 63° NNW 20:01:16 30° NE
Landsat 4 4.2 19:56:28 29° N 19:58:10 59° WNW 20:01:50 10° SSW
Cosmos 2239 Rocket 4.4 19:53:10 10° NNW 19:59:21 86° W 20:05:30 10° S
Resurs 01 Rocket 2.7 20:01:09 31° NNE 20:01:09 31° NNE 20:03:43 10° N
Cosmos 2237 Rocket 4.2 19:58:21 10° NW 20:01:55 17° N 20:04:06 14° NNE
Cosmos 1570 Rocket 4.4 19:57:45 10° S 20:01:56 43° SE 20:01:56 43° SE
Cosmos 44 2.9 19:58:35 10° SW 20:02:59 86° SE 20:03:18 76° ENE
Cosmos 1500 Rocket 3.4 19:58:32 10° S 20:03:00 78° E 20:03:24 71° NE
Cosmos 371 Rocket 3.5 20:02:23 10° S 20:06:22 52° SSE 20:06:22 52° SSE
Meteor 2-10 Rocket 3.3 20:09:36 10° NNW 20:14:45 82° ENE 20:15:29 65° SSE
ERS-2 4.3 20:12:02 10° SSW 20:15:14 27° W 20:18:27 10° NW
Cosmos 1743 Rocket 3.9 20:13:47 10° SSW 20:18:06 64° WNW 20:19:26 41° NNW
Meteor 2-15 4.3 20:12:17 10° S 20:18:23 85° E 20:24:31 10° NNE
Cosmos 2298 Rocket 3.9 20:14:54 10° NNW 20:20:16 88° WSW 20:21:10 63° SSE
Cosmos 1340 3.6 20:16:40 10° NNW 20:20:19 46° W 20:20:52 43° SW
Cosmos 2322 Rocket 3.4 20:15:50 10° NNW 20:19:57 28° NNE 20:19:57 28° NNE
Cosmos 1937 Rocket 3.5 20:16:33 10° NNW 20:21:50 80° WSW 20:23:03 54° S
Thor Agena Rocket 4.4 20:24:47 36° S 20:24:47 36° S 20:27:53 10° S
Cosmos 1703 4.4 20:20:04 10° SW 20:23:53 44° WNW 20:24:59 35° NNW
Cosmos 2360 4.4 20:18:16 10° NNW 20:23:26 53° NNE 20:23:26 53° NNE
USA 215 3.2 20:26:00 57° ENE 20:27:28 77° N 20:34:01 10° W
Lacrosse 4 Rocket 3.8 20:27:22 10° NW 20:29:01 13° N 20:29:01 13° N
Cosmos 2219 Rocket 4.1 20:29:42 10° NNW 20:33:21 17° N 20:33:29 17° N
SJ-6B 4.3 20:40:23 33° WNW 20:40:23 33° WNW 20:43:15 10° NNW
H-2A R/B 4.3 20:45:52 13° N 20:45:52 13° N 20:46:31 10° N
Cosmos 44 Rocket 3.7 20:37:35 10° WSW 20:41:36 58° W 20:41:36 58° W
Meteor 2-17 Rocket 4.4 20:37:00 10° NNW 20:43:07 83° W 20:44:27 57° S
SL-16 R/B 3.4 20:38:12 10° NNW 20:41:52 31° N 20:41:52 31° N
Meteor 2-15 Rocket 4.5 20:39:43 10° SSW 20:45:50 76° WNW 20:52:00 10° N
Cosmos 2150 Rocket 4.3 20:44:18 10° NNW 20:49:13 61° W 20:49:13 61° W
Spot 2 Rocket 4.2 20:51:01 46° NNW 20:51:01 46° NNW 20:54:34 10° NNW
Cosmos 2360 Rocket 3.8 20:46:19 10° NNW 20:49:24 23° N 20:49:24 23° N
Cosmos 1980 Rocket 2.6 20:48:14 10° NNW 20:52:40 55° NNW 20:52:40 55° NNW
ATLAS 5 CENTAUR R/B 3.0 21:00:06 10° NW 21:04:04 45° NNW 21:04:04 45° NNW
Cosmos 2333 Rocket 4.2 21:05:17 10° NNW 21:08:11 18° N 21:08:11 18° N
Cosmos 2344 4.2 21:12:37 10° NW 21:22:00 80° NE 21:23:49 67° ESE
SL-16 R/B 4.4 21:24:02 10° NW 21:27:04 16° N 21:27:04 16° N
COSMOS 2406 4.2 21:22:44 10° WSW 21:27:22 43° WNW 21:27:22 43° WNW
SJ 16-02 4.1 21:25:41 10° NNW 21:26:09 13° NNW 21:26:09 13° NNW
Resurs 01 Rocket 4.3 21:38:43 16° NW 21:38:43 16° NW 21:39:57 10° NW
Cosmos 1697 Rocket 4.1 21:33:41 10° NW 21:37:47 34° W 21:37:47 34° W
Cosmos 2237 Rocket 4.5 21:44:12 10° NNW 21:45:56 16° N 21:45:56 16° N
Cosmos 2322 Rocket 4.3 21:59:50 10° NW 22:01:47 22° NW 22:01:47 22° NW
USA 215 4.4 22:13:21 38° WNW 22:13:21 38° WNW 22:17:09 10° WNW
